Stations météo

Publicité
Colmar, France (7197): Température de l'air & dewpoint: 17.02.2017 01:00:00 - 23.02.2017 01:00:00 (CET)Colmar, France (7197): Température de l'air 5cm: 17.02.2017 01:00:00 - 23.02.2017 01:00:00 (CET)Colmar, France (7197): Température de l'air -20cm & Température de l'air -100cm: 17.02.2017 01:00:00 - 23.02.2017 01:00:00 (CET)Colmar, France (7197): Vitesse du vent & gusts: 17.02.2017 01:00:00 - 23.02.2017 01:00:00 (CET)Colmar, France (7197): Direction du vent: 17.02.2017 01:00:00 - 23.02.2017 01:00:00 (CET)Colmar, France (7197): reduced air pressure: 17.02.2017 01:00:00 - 23.02.2017 01:00:00 (CET)Colmar, France (7197): visibility: 17.02.2017 01:00:00 - 23.02.2017 01:00:00 (CET)Colmar, France (7197): Ensoleillement: 17.02.2017 01:00:00 - 23.02.2017 01:00:00 (CET)Colmar, France (7197): Quantités de précipitations: 17.02.2017 01:00:00 - 23.02.2017 01:00:00 (CET)
Date & Time tt [°C] td [°C] tt 5cm [°C] tt -20cm [°C] tt -100cm [°C] ff [km/h] ff [knt] fx [km/h] fx [knt] dd ppp [hPa] vv [km] sd [min] rr [mm]
23.02.2017 01:00:00 9,4 4,4 - - - 18 10 31 17 SSW 1015,4 20 - -
23.02.2017 00:00:00 9,1 3,9 - - - 15 8 22 12 SSW 1015,9 20 - 0,0
22.02.2017 23:00:00 9,6 3,8 - - - 11 6 34 18 SSW 1015,9 20 - 0,0
22.02.2017 22:00:00 9,7 3,9 - - - 18 10 31 17 SSW 1016,6 20 - -
22.02.2017 21:00:00 9,9 4,3 - - - 16 9 41 22 WSW 1016,7 20 - 0,0
22.02.2017 20:00:00 9,9 4,5 - - - 16 9 28 15 SW 1017,1 20 - 0,0
22.02.2017 19:00:00 9,8 4,4 9,4 8,2 5,4 19 10 49 26 SW 1016,9 20 0 0,0
22.02.2017 18:00:00 10,3 4,4 - - - 37 20 52 28 WSW 1016,4 20 - 0,0
22.02.2017 17:00:00 10,8 4,7 10,6 8,3 5,4 29 15 47 25 WSW 1016,7 20 0 0,0
22.02.2017 16:00:00 10,8 4,3 - - - 24 13 41 22 SW 1016,8 20 - -
22.02.2017 15:00:00 11,0 4,7 - - - 18 10 29 16 SSW 1017,4 20 - 0,0
22.02.2017 14:00:00 11,9 4,1 - - - 13 7 35 19 SW 1017,9 20 - 0,0
22.02.2017 13:00:00 11,5 4,0 - - - 21 11 34 18 WSW 1018,3 20 - -
22.02.2017 12:00:00 11,7 4,4 - - - 18 10 37 20 SW 1018,6 20 - 0,0
22.02.2017 11:00:00 11,4 6,1 - - - 18 10 37 20 S 1018,7 20 - 0,0
22.02.2017 10:00:00 10,9 6,4 - - - 21 11 39 21 S 1018,5 20 - -
22.02.2017 09:00:00 11,5 6,6 - - - 21 11 42 23 S 1018,2 20 - 0,0
22.02.2017 08:00:00 10,1 5,9 9,3 7,6 5,2 19 11 44 24 SSW 1018,2 20 12 0,0
22.02.2017 07:00:00 9,8 6,3 - - - 24 13 39 21 SSW 1017,4 20 - -
22.02.2017 06:00:00 9,5 6,9 8,7 7,8 5,2 16 9 31 17 S 1017,8 20 0 0,0
22.02.2017 05:00:00 9,6 7,0 - - - 13 7 35 19 S 1018,4 20 - 0,0
22.02.2017 04:00:00 10,5 7,7 - - - 21 11 41 22 SSW 1018,6 20 - -
22.02.2017 03:00:00 10,7 8,1 - - - 26 14 42 23 SSW 1019,1 20 - 0,0
22.02.2017 02:00:00 10,5 8,3 - - - 22 12 35 19 SSW 1019,6 20 - 0,0
22.02.2017 01:00:00 10,4 8,0 - - - 16 9 34 18 SW 1019,8 20 - -
22.02.2017 00:00:00 10,7 8,5 - - - 21 11 39 21 SSW 1020,0 20 - 0,0
21.02.2017 23:00:00 10,6 8,7 10,1 8,1 5,1 21 12 36 19 SSW 1020,1 20 0 0,0
21.02.2017 22:00:00 10,6 8,7 - - - 22 12 37 20 SSW 1020,3 20 - -
21.02.2017 21:00:00 10,6 8,2 9,8 8,3 5,1 15 8 27 15 SSW 1020,4 20 0 0,0
21.02.2017 20:00:00 10,5 8,4 10,0 8,4 5,1 17 9 30 16 SSW 1020,3 20 0 0,0
21.02.2017 19:00:00 10,8 8,2 10,2 8,5 5,1 17 9 29 15 SSW 1020,5 20 0 0,0
21.02.2017 18:00:00 11,6 8,3 11,3 8,4 5,0 20 11 35 19 SSW 1020,0 20 20 0,0
21.02.2017 17:00:00 12,5 8,4 - - - 26 14 46 25 SSW 1019,7 20 - -
21.02.2017 16:00:00 13,0 8,5 - - - 26 14 44 24 SSW 1019,6 20 - -
21.02.2017 15:00:00 13,0 8,3 - - - 22 12 44 24 S 1019,4 20 - 0,0
21.02.2017 14:00:00 12,6 8,3 - - - 24 13 42 23 S 1020,0 20 - 0,0
21.02.2017 13:00:00 12,8 8,1 - - - 22 12 42 23 S 1020,3 20 - -
21.02.2017 12:00:00 13,4 8,5 13,6 6,6 5,0 10 5 31 17 ENE 1020,4 20 21 0,0
21.02.2017 11:00:00 12,5 8,0 - - - 16 9 28 15 SSW 1020,5 20 - 0,0
21.02.2017 10:00:00 10,6 7,7 9,6 6,3 5,0 15 8 32 17 S 1020,5 20 0 0,0
21.02.2017 09:00:00 9,7 7,3 - - - 21 11 39 21 SSW 1020,4 20 - 0,0
21.02.2017 08:00:00 9,2 7,1 - - - 22 12 41 22 SSW 1020,4 20 - 0,0
21.02.2017 07:00:00 8,7 7,1 - - - 24 13 44 24 SSW 1020,2 20 - -
21.02.2017 06:00:00 8,6 6,9 8,2 6,2 5,0 27 15 43 23 SSW 1020,0 20 0 0,0
21.02.2017 05:00:00 8,9 6,5 8,1 6,2 4,9 18 10 38 21 S 1020,5 20 0 0,0
21.02.2017 04:00:00 8,5 6,5 8,0 6,2 4,9 17 9 33 18 S 1020,9 20 0 0,0
21.02.2017 03:00:00 8,4 6,4 7,8 6,2 4,9 22 12 37 20 S 1021,7 20 0 0,0
21.02.2017 02:00:00 8,1 6,2 7,4 6,3 4,9 19 11 36 19 S 1022,3 20 0 0,0
21.02.2017 01:00:00 7,9 5,9 7,4 6,3 4,9 16 9 39 21 S 1022,5 20 0 0,0
21.02.2017 00:00:00 8,5 5,8 - - - 22 12 35 19 SSW 1022,5 20 - 0,0
20.02.2017 23:00:00 8,6 5,3 8,1 6,4 4,9 20 11 34 18 SSW 1022,7 20 0 0,0
20.02.2017 22:00:00 8,7 5,3 - - - 18 10 34 18 SSW 1022,7 20 - -
20.02.2017 21:00:00 - - - - - - - - - - - - - -
20.02.2017 20:00:00 7,9 5,7 - - - 15 8 31 17 S 1022,7 14 - 2,0
20.02.2017 19:00:00 8,4 5,3 - - - 21 11 34 18 SSW 1023,3 17 - -
20.02.2017 18:00:00 9,4 4,0 8,9 6,6 4,9 17 9 33 18 SSW 1023,0 20 0 0,0
20.02.2017 17:00:00 9,7 4,1 - - - 22 12 35 19 SSW 1023,0 20 - 0,0
20.02.2017 16:00:00 10,2 4,1 - - - 21 11 41 22 SSW 1023,3 20 - -
20.02.2017 15:00:00 10,1 4,0 10,7 5,9 4,9 29 15 42 23 SSW 1023,4 20 5 0,0
20.02.2017 14:00:00 11,3 4,0 - - - 26 14 41 22 SSW 1023,6 20 - 0,0
20.02.2017 13:00:00 10,9 4,1 12,1 5,0 4,9 23 12 35 19 SSW 1024,6 20 37 0,0
20.02.2017 12:00:00 10,9 4,6 - - - 16 9 26 14 S 1025,5 20 - 0,0
20.02.2017 11:00:00 8,8 4,4 8,4 4,5 4,9 13 7 24 13 S 1025,9 20 0 0,0
20.02.2017 10:00:00 7,9 4,1 6,8 4,4 4,8 13 7 23 13 SSW 1025,8 20 0 0,0
20.02.2017 09:00:00 6,7 3,5 5,7 4,3 4,8 13 7 21 12 S 1025,7 20 0 0,0
20.02.2017 08:00:00 5,8 2,6 5,1 4,4 4,8 7 4 17 9 S 1025,7 20 0 0,0
20.02.2017 07:00:00 5,5 2,1 4,9 4,4 4,8 9 5 20 11 S 1025,1 20 0 0,0
20.02.2017 06:00:00 5,1 1,6 - - - 11 6 21 11 SSW 1025,3 20 - 0,0
20.02.2017 05:00:00 4,7 1,4 - - - 9 5 21 11 SSW 1025,3 19 - 0,0
20.02.2017 04:00:00 4,7 1,2 4,4 4,6 4,8 8 4 17 9 SSW 1025,4 20 0 0,0
20.02.2017 03:00:00 4,9 1,2 3,9 4,6 4,8 10 5 16 9 SSW 1025,6 20 0 0,0
20.02.2017 02:00:00 5,0 0,9 4,1 4,7 4,8 6 4 13 7 S 1026,1 20 0 0,0
20.02.2017 01:00:00 5,5 1,2 - - - 9 5 15 8 SSW 1025,9 20 - -
20.02.2017 00:00:00 4,9 0,8 2,0 5,0 4,8 5 3 10 6 S 1026,1 20 0 0,0
19.02.2017 23:00:00 3,9 0,4 1,2 5,2 4,8 5 3 10 5 SE 1026,1 20 0 0,0
19.02.2017 22:00:00 5,0 0,2 2,5 5,3 4,8 6 4 13 7 SSE 1025,2 20 0 0,0
19.02.2017 21:00:00 5,6 0,2 2,6 5,5 4,8 3 2 8 5 W 1025,1 20 0 0,0
19.02.2017 20:00:00 6,5 0,2 0,1 5,7 4,8 8 5 13 7 SW 1024,6 20 0 0,0
19.02.2017 19:00:00 6,6 0,3 - - - 5 3 21 11 SSW 1024,4 20 - -
19.02.2017 18:00:00 9,5 0,6 8,4 5,8 4,8 15 8 26 14 SW 1023,3 20 35 0,0
19.02.2017 17:00:00 11,9 1,5 - - - 15 8 24 13 SSW 1022,9 20 - 0,0
19.02.2017 16:00:00 12,7 3,1 13,1 5,1 4,8 3 2 11 6 NW 1023,4 20 31 0,0
19.02.2017 15:00:00 11,4 2,9 13,2 4,6 4,8 5 3 10 6 ENE 1023,7 20 9 0,0
19.02.2017 14:00:00 11,4 2,1 12,6 4,0 4,8 4 2 19 10 SSW 1024,5 20 30 0,0
19.02.2017 13:00:00 10,4 2,7 11,9 3,4 4,8 6 3 16 9 SW 1025,3 20 60 0,0
19.02.2017 12:00:00 8,0 1,8 10,3 2,9 4,8 11 6 18 10 SSW 1026,2 19 60 0,0
19.02.2017 11:00:00 6,3 1,2 6,2 2,8 4,8 6 3 17 9 S 1026,6 17 60 0,0
19.02.2017 10:00:00 3,5 1,4 1,7 2,9 4,8 10 5 18 10 SSW 1027,1 12 60 0,0
19.02.2017 09:00:00 0,1 -0,5 -5,3 3,1 4,8 5 3 10 6 SSW 1027,0 7 60 0,0
19.02.2017 08:00:00 -3,5 -3,9 -8,0 3,3 4,8 5 3 9 5 S 1027,1 7 7 0,0
19.02.2017 07:00:00 -3,8 -4,3 -7,3 3,5 4,7 2 1 9 5 ESE 1027,1 6 0 0,0
19.02.2017 06:00:00 -4,4 -5,2 -6,9 3,7 4,7 4 2 7 4 S 1027,0 7 0 0,0
19.02.2017 05:00:00 -3,5 -4,0 -7,2 3,9 4,7 5 3 9 5 S 1026,8 7 0 0,0
19.02.2017 04:00:00 -3,4 -3,9 -7,1 4,2 4,7 6 4 9 5 SSW 1026,9 6 0 0,0
19.02.2017 03:00:00 -3,5 -4,3 -6,0 4,5 4,7 2 1 6 4 S 1027,3 7 0 0,0
19.02.2017 02:00:00 -2,3 -2,9 -5,6 4,8 4,7 2 1 4 2 S 1027,3 4,8 0 0,0
19.02.2017 01:00:00 -2,6 -3,3 -5,8 5,1 4,7 3 2 5 3 WSW 1027,5 7 0 0,0
19.02.2017 00:00:00 -2,0 -3,1 -4,6 5,4 4,7 2 1 7 4 SSW 1027,4 8 0 0,0
18.02.2017 23:00:00 0,3 -0,7 -4,2 5,8 4,7 4 2 6 3 NNE 1026,8 13 0 0,0
18.02.2017 22:00:00 1,3 -0,3 -2,8 6,0 4,7 0 0 10 5 N 1026,9 13 0 0,0
18.02.2017 21:00:00 4,2 1,1 2,6 6,3 4,7 8 4 11 6 N 1026,5 19 0 0,0
18.02.2017 20:00:00 5,8 1,9 4,4 6,4 4,7 6 3 10 5 N 1026,2 20 0 0,0
18.02.2017 19:00:00 6,7 2,4 5,9 6,4 4,6 5 3 12 7 N 1026,3 20 0 0,0
18.02.2017 18:00:00 7,9 3,2 7,0 6,4 4,6 8 4 18 10 N 1026,0 20 33 0,0
18.02.2017 17:00:00 9,9 3,2 10,0 6,2 4,6 14 7 20 11 N 1025,6 20 44 0,0
18.02.2017 16:00:00 9,6 3,6 - - - 13 7 22 12 N 1025,5 20 - -
18.02.2017 15:00:00 10,6 4,3 10,7 5,5 4,6 10 5 22 12 NNE 1025,4 20 43 0,0
18.02.2017 14:00:00 9,4 4,6 - - - 11 6 22 12 N 1025,9 19 - 0,0
18.02.2017 13:00:00 9,2 4,6 - - - 13 7 26 14 N 1026,7 19 - -
18.02.2017 12:00:00 7,5 4,1 - - - 11 6 21 11 N 1027,6 18 - 0,0
18.02.2017 11:00:00 6,2 3,9 3,8 3,8 4,5 4 2 9 5 NNE 1028,1 13 51 0,0
18.02.2017 10:00:00 1,9 1,6 1,0 3,8 4,6 4 2 9 5 SSW 1028,6 8 3 0,0
18.02.2017 09:00:00 0,3 0,0 -1,8 4,0 4,5 4 2 9 5 SE 1028,8 0,4 13 0,0
18.02.2017 08:00:00 -0,9 -1,3 -3,1 4,3 4,6 5 3 9 5 SE 1028,7 4,3 5 0,0
18.02.2017 07:00:00 -0,1 -0,7 -2,8 4,4 4,5 0 0 6 4 N 1028,5 3,0 0 0,0
18.02.2017 06:00:00 1,2 0,8 - - - 4 2 5 3 SSW 1028,5 7 - 0,0
18.02.2017 05:00:00 1,6 1,2 - - - 4 2 9 5 S 1028,2 8 - 0,0
18.02.2017 04:00:00 1,4 1,3 - - - 2 1 5 3 SSW 1028,2 6 - -
18.02.2017 03:00:00 -0,1 -0,4 -2,6 5,1 4,5 5 3 8 4 SSW 1028,7 4,6 0 0,0
18.02.2017 02:00:00 0,2 -0,5 -2,2 5,3 4,5 4 2 5 3 W 1029,0 8 0 0,0
18.02.2017 01:00:00 2,0 1,6 0,7 5,5 4,5 4 2 6 3 SE 1029,0 12 0 0,0
18.02.2017 00:00:00 2,0 1,6 -0,7 5,8 4,4 2 1 6 3 SSE 1029,1 18 0 0,0
17.02.2017 23:00:00 1,5 0,8 -1,0 6,0 4,4 0 0 6 3 N 1029,3 17 0 0,0
17.02.2017 22:00:00 2,5 1,5 -0,2 6,3 4,4 3 2 6 3 SE 1029,2 19 0 0,0
17.02.2017 21:00:00 4,1 2,8 1,7 6,5 4,4 2 1 8 5 S 1028,7 20 0 0,0
17.02.2017 20:00:00 4,7 2,6 0,9 6,7 4,4 5 3 9 5 E 1028,7 20 0 0,0
17.02.2017 19:00:00 6,7 3,1 1,8 6,8 4,4 3 2 6 3 E 1028,3 20 0 0,0
17.02.2017 18:00:00 9,3 3,5 - - - 4 2 5 3 N 1027,6 20 - 0,0
17.02.2017 17:00:00 9,8 2,9 9,7 6,7 4,4 4 2 10 5 SW 1027,1 20 16 0,0
17.02.2017 16:00:00 11,9 2,9 - - - 4 2 11 6 SW 1027,2 20 - -
17.02.2017 15:00:00 11,2 3,9 - - - 8 4 18 10 S 1027,2 20 - 0,0
17.02.2017 14:00:00 10,0 5,8 9,6 5,4 4,3 11 6 18 10 S 1027,8 20 47 0,0
17.02.2017 13:00:00 9,1 6,4 6,8 5,1 4,3 6 4 11 6 S 1028,5 20 14 0,0
17.02.2017 12:00:00 6,8 5,6 - - - 8 4 15 8 SSE 1029,0 20 - 0,4
17.02.2017 11:00:00 6,1 5,2 - - - 9 5 18 10 ESE 1029,4 19 - 1,0
17.02.2017 10:00:00 6,0 5,0 5,7 4,9 4,3 10 5 16 8 E 1029,2 20 0 0,4
17.02.2017 09:00:00 6,2 5,0 5,8 5,0 4,3 8 4 22 12 ENE 1028,7 20 0 0,0
17.02.2017 08:00:00 5,9 5,8 - - - 9 5 21 11 NNE 1028,2 1,5 - 0,0
17.02.2017 07:00:00 4,8 4,5 - - - 4 2 5 3 SSW 1027,4 1,7 - -
17.02.2017 06:00:00 5,3 5,0 - - - 4 2 9 5 W 1027,9 1,9 - 0,0
17.02.2017 05:00:00 5,7 5,4 - - - 4 2 5 3 E 1027,8 2,4 - 0,0
17.02.2017 04:00:00 5,4 5,0 - - - 0 0 4 2 N 1028,1 1,1 - -
17.02.2017 03:00:00 5,8 5,2 - - - 0 0 9 5 N 1028,4 1,2 - 0,0
17.02.2017 02:00:00 7,1 5,7 5,1 5,5 4,3 0 0 11 6 N 1028,6 5 0 0,0
17.02.2017 01:00:00 - - - - - - - - - - - - - -

tt = Température de l'air
td = dewpoint
tt 5cm = Température de l'air 5cm
tt -20cm = Température de l'air -20cm
tt -100cm = Température de l'air -100cm
ff = Vitesse du vent
fx = gusts
dd = Direction du vent
ppp = reduced air pressure
vv = visibility
sd = Ensoleillement
rr = Quantités de précipitations

stations d'obs. à proximité